sat.trackr.live / text

‹ back to catalog

KUIPER-00111

NORAD 65149 · 2025-171T

PAYLOAD ACTIVE UNKNOWN

§ Identity

Operator
Country
US
Launch date
2025-08-11
Launch site
AFETR
Launch vehicle
Mass (kg)
RCS (m²)

External: N2YO · Heavens-Above · Gunter

§ Orbital elements

Epoch: 2026-05-25T02:31:12.692928Z

Period
97.30 min
Inclination
51.8959°
Eccentricity
0.0000417
Mean motion
14.79938182 rev/d
Perigee alt
629.2 km
Apogee alt
629.8 km
Semi-major
7,007.7 km
B*
3.0710e-4
RAAN
195.1179°
Arg perigee
86.3345°
Mean anomaly
273.7665°
Rev number
4,399

§ Raw data

KUIPER-001111 65149U 25171T   26145.10500802  .00002121  00000+0  30710-3 0  99942 65149  51.8959 195.1179 0000417  86.3345 273.7665 14.79938182 43991

JSON: /api/v1/satellites/65149 · /tle

For live sub-satellite position, see the globe view (requires WebGL).

§ Visibility from observer

Set your observer location to see the next 7 days of passes ≥ 10°. The values pass through the URL so the page stays shareable.

No JS? Fill the form by hand. The geolocation button needs JavaScript.